GFSNGP_925_spd_132.txt.gz
Wind_Speed
10 10 4 2 7 12 12 13 7 4 4 8 11 12 10 10 14 16 18 18 17 16 17 25 29 28 29 30 29 25 19 24 24 22 21 20 18 19 18 17 18 18 19 19
7 6 11 7 8 12 9 11 11 4 6 3 6 9 14 16 14 17 17 18 17 17 22 24 26 27 25 30 25 24 29 30 25 24 21 21 21 21 21 20 20 19 18 19
3 2 10 4 5 6 10 11 6 9 8 10 6 11 14 16 16 16 17 18 18 18 22 24 25 25 28 28 24 24 26 18 23 26 26 29 27 24 23 22 20 19 18 18
3 4 3 5 2 5 10 9 9 6 9 10 1 5 13 15 16 17 18 18 17 21 22 22 22 23 19 17 19 21 19 21 24 24 24 24 24 24 23 22 22 22 22 21
3 1 6 8 3 3 3 5 9 9 10 12 2 8 8 13 13 13 14 18 20 21 23 25 27 23 22 24 24 23 24 23 24 24 23 24 23 23 25 26 25 26 24 23
3 3 3 6 8 2 4 4 8 9 9 11 11 5 8 12 13 15 16 17 19 19 19 21 25 23 24 25 24 24 23 24 26 25 24 25 26 26 26 26 25 25 25 23
2 3 3 4 7 2 5 4 6 8 8 9 7 5 7 10 12 16 17 18 18 17 19 21 22 23 22 23 26 26 24 22 22 22 22 23 24 24 27 27 24 25 25 23
2 4 3 8 2 3 3 2 5 5 7 6 5 6 8 10 11 15 18 20 20 19 19 19 22 23 23 24 25 25 23 23 23 25 23 22 22 25 25 26 25 27 26 27
4 3 4 7 8 5 2 2 4 5 6 5 5 6 7 8 11 14 17 17 19 19 20 21 22 21 21 22 23 22 20 21 22 22 22 23 22 24 24 26 27 27 28 27
5 5 5 6 6 4 4 4 4 5 5 6 6 7 7 8 10 12 15 17 19 20 21 23 25 24 23 24 24 22 21 23 24 23 25 25 23 24 24 27 28 26 29 28
3 7 7 5 5 4 5 5 6 6 6 6 6 7 8 7 10 11 13 15 16 18 19 21 22 23 23 23 23 22 19 21 23 21 22 22 22 21 23 24 27 27 30 28
1 8 3 8 6 3 4 4 4 3 4 7 8 7 8 9 10 11 12 13 14 16 17 19 20 21 24 23 22 20 18 20 20 20 20 21 21 20 17 19 22 27 26 30
4 6 9 9 5 4 7 6 5 6 6 5 6 6 7 7 10 10 12 14 15 15 17 18 20 21 22 22 21 19 17 19 18 20 21 21 22 21 22 22 19 22 27 27
11 11 8 8 5 10 10 9 7 7 6 5 5 5 6 7 8 10 11 12 13 15 17 18 19 21 23 21 20 20 19 19 18 18 19 19 19 20 20 21 22 23 23 28
8 2 8 12 11 8 9 7 5 5 5 5 6 6 7 8 10 11 11 12 11 14 17 18 20 22 23 22 20 20 20 21 19 17 17 17 17 17 18 18 20 21 23 24
10 11 11 10 9 7 7 6 5 6 6 6 7 7 7 8 9 10 10 11 12 14 15 16 17 19 19 20 18 17 17 19 18 17 17 17 17 17 17 17 17 19 22 25
12 10 10 10 9 8 6 6 7 8 8 8 7 7 6 6 8 9 10 9 9 11 13 15 17 17 17 17 16 16 16 17 18 17 17 17 16 16 16 16 16 16 19 24
5 6 9 9 9 9 9 9 9 9 9 9 8 8 8 8 7 7 7 7 7 10 15 16 16 16 16 16 15 15 15 16 17 17 16 17 17 16 15 15 16 16 17 19
9 10 11 12 12 12 12 11 11 11 11 9 8 8 7 5 4 5 6 8 10 11 16 15 15 14 15 16 14 14 14 15 15 16 16 16 16 16 17 16 15 16 16 18
13 13 14 14 13 14 14 12 12 12 10 10 10 7 6 5 4 4 5 9 10 8 10 13 13 12 14 14 14 13 13 13 14 14 15 15 15 15 15 15 15 15 16 16
14 14 14 15 14 14 14 14 14 12 11 9 7 6 5 4 5 3 3 5 8 10 10 11 13 12 12 12 12 12 12 12 12 12 13 13 13 14 14 14 14 14 14 14
14 15 15 16 16 14 13 12 12 14 11 9 8 7 6 4 2 4 7 5 6 8 8 10 11 13 11 11 10 11 11 11 11 11 11 12 12 12 12 13 13 12 12 12
15 16 17 16 16 15 12 12 13 11 10 9 8 6 4 3 1 0 1 4 5 6 6 8 10 11 11 9 9 9 10 10 10 10 10 10 10 10 10 11 11 11 10 10
17 17 16 15 15 15 14 12 12 10 10 9 7 7 5 4 2 1 2 2 4 4 5 6 8 9 9 8 8 8 8 9 9 9 9 8 8 8 8 9 9 9 9 9
17 17 17 16 16 14 14 15 12 11 9 8 7 6 6 5 3 4 3 2 1 1 2 5 6 7 6 6 7 7 7 7 8 7 8 7 8 8 8 8 8 7 7 7
20 18 18 17 14 15 15 16 13 12 11 10 9 8 8 7 6 5 4 4 3 3 3 3 4 4 5 5 5 5 6 6 6 6 7 7 6 7 7 7 7 6 6 6
16 16 16 16 14 15 16 15 14 13 14 12 10 10 10 9 8 7 7 6 5 5 4 4 4 4 4 5 5 5 6 6 6 5 5 6 6 6 7 6 6 5 5 4

GFSNGP_925_spd_138.txt.gz
Wind_Speed
6 4 9 2 5 5 2 2 3 2 4 6 2 4 2 1 6 10 12 15 14 14 20 26 29 32 32 29 30 27 25 30 33 30 31 35 32 30 30 33 30 28 26 23
6 10 11 5 7 4 5 3 2 1 6 7 5 4 9 12 10 11 12 13 16 17 21 24 29 30 33 35 35 35 35 33 33 32 31 22 24 30 34 30 20 20 20 18
9 13 7 3 2 1 8 5 4 1 4 6 6 5 9 12 13 14 14 14 15 16 20 22 27 28 29 30 32 33 36 37 40 34 31 32 28 31 31 24 16 18 19 21
4 10 3 2 4 4 9 4 2 2 3 6 6 3 7 11 12 14 15 16 16 19 20 23 25 25 27 28 28 29 28 29 32 30 30 29 31 29 26 23 26 25 27 25
3 7 5 6 9 6 6 6 5 2 3 7 8 9 8 11 11 13 14 18 19 20 21 22 26 26 25 28 29 28 30 28 28 27 28 30 30 29 32 25 25 26 22 20
5 8 3 7 7 4 6 4 4 0 3 7 10 4 6 11 12 15 18 19 21 21 20 22 24 24 25 26 29 30 30 29 28 27 28 30 28 31 25 21 22 24 23 26
7 4 5 6 8 8 4 4 4 5 3 4 5 4 6 8 11 14 16 18 20 20 21 23 25 26 26 28 29 28 26 25 26 28 26 24 26 24 26 27 28 28 27 28
7 6 5 4 10 4 7 6 6 6 4 4 3 2 4 7 10 12 14 16 18 18 20 22 25 26 26 27 28 28 27 27 26 26 25 25 26 24 27 29 27 28 27 27
4 4 9 9 13 10 7 8 6 5 4 4 3 4 6 6 9 11 12 13 16 16 18 21 23 25 25 28 28 28 27 27 28 28 29 28 25 27 29 30 29 28 28 28
3 9 11 11 10 10 9 8 7 5 5 4 5 5 5 7 9 9 10 12 14 16 17 20 22 23 24 26 27 26 25 26 27 27 29 29 26 28 27 28 29 31 32 30
6 9 9 7 9 9 9 7 7 8 7 6 5 6 6 6 8 9 11 11 14 16 16 18 21 23 25 26 25 24 24 24 24 24 25 25 24 21 22 25 29 29 29 27
2 11 4 11 10 9 9 8 7 5 6 8 7 6 6 9 9 9 10 12 12 14 16 18 19 21 23 25 24 23 23 24 24 24 24 23 22 22 22 18 25 28 28 30
5 8 11 12 9 11 8 7 8 8 7 6 6 7 7 9 8 8 10 11 12 12 14 16 19 23 25 26 23 22 23 23 21 22 22 22 22 22 20 20 18 26 29 28
13 14 10 12 6 9 10 10 9 10 8 7 6 7 8 8 8 9 10 10 11 12 15 16 18 22 23 24 23 22 20 22 19 19 21 21 21 20 20 21 22 23 31 29
11 2 11 11 12 10 11 10 8 7 8 7 7 8 7 8 8 9 9 9 9 11 12 13 16 19 20 20 20 21 20 22 20 19 21 21 22 21 21 21 21 20 25 28
9 11 12 12 11 9 8 7 6 7 7 8 8 7 8 9 9 8 8 8 9 10 11 12 14 18 20 17 17 16 17 18 19 18 20 21 20 22 22 21 21 21 21 26
14 13 12 11 10 10 9 8 7 9 9 8 8 6 6 8 8 7 7 6 6 8 9 10 13 16 18 16 17 15 16 17 18 18 18 19 19 19 20 20 20 20 21 26
13 12 13 12 10 9 8 8 9 10 9 10 9 9 10 10 7 5 4 5 4 3 10 12 12 13 15 16 19 15 16 17 16 18 18 18 18 18 18 18 18 19 19 20
9 9 11 12 12 12 12 11 11 12 13 12 11 10 8 7 6 4 4 5 5 4 9 12 13 11 13 15 18 15 16 16 16 16 18 17 17 17 18 19 19 19 20 21
7 11 12 12 13 14 15 16 18 15 12 11 11 9 7 5 3 2 1 2 3 4 6 10 11 9 12 10 14 13 14 14 15 15 16 16 17 16 17 18 18 18 18 19
14 17 17 17 18 18 19 17 17 15 13 12 9 8 6 4 1 0 4 5 1 5 7 6 8 10 8 11 12 12 13 13 14 14 15 15 15 16 16 17 17 17 18 17
14 12 14 16 16 14 14 15 14 15 14 12 9 9 7 4 3 2 2 3 3 6 2 4 7 7 7 10 9 10 11 12 12 13 13 14 14 15 15 15 17 16 16 17
12 12 13 14 14 14 14 13 14 15 14 13 12 11 9 3 7 7 6 6 2 3 2 4 7 4 5 8 7 8 9 10 10 11 11 12 12 13 13 13 14 15 15 15
14 14 14 14 15 15 14 13 13 12 13 11 12 11 8 6 7 6 5 6 7 4 3 5 8 5 4 6 6 7 8 8 8 9 10 10 10 11 11 12 13 13 13 13
15 15 16 17 16 14 14 15 13 13 12 11 10 10 12 9 7 4 6 6 8 8 6 8 7 6 4 5 6 7 7 9 8 9 8 10 10 11 10 10 12 12 11 11
17 16 16 18 15 15 16 16 15 15 14 13 13 13 12 9 10 9 7 9 7 7 6 8 6 5 9 6 6 8 8 8 9 7 10 11 10 10 10 10 11 12 11 11
14 14 15 16 16 16 17 17 16 15 17 14 14 16 16 15 13 11 9 11 11 9 11 9 10 10 7 9 9 8 9 9 10 10 10 8 9 10 11 11 12 13 12 12

GFSNGP_925_spd_141.txt.gz
Wind_Speed
3 7 4 3 6 7 3 3 2 4 5 1 4 4 4 3 2 3 6 10 11 11 18 24 27 28 31 33 34 35 33 34 37 34 35 31 32 31 40 41 33 36 32 30
6 4 9 4 4 10 6 4 6 5 3 1 2 4 8 7 4 6 8 11 12 14 18 23 26 27 28 30 32 32 31 32 32 32 32 33 33 33 39 39 44 39 31 21
3 11 6 2 4 4 7 5 2 3 3 1 1 8 7 6 7 9 10 12 13 15 18 22 24 24 26 27 28 28 29 30 31 32 31 30 31 35 38 42 41 32 33 29
4 6 3 3 1 6 9 4 3 5 1 3 1 10 8 6 7 10 11 12 15 14 17 20 22 23 24 26 26 27 27 28 29 28 29 30 33 39 42 35 30 30 30 32
3 1 3 6 6 6 5 5 6 5 2 5 8 9 9 6 12 11 12 14 15 15 17 19 22 23 24 25 26 27 28 28 30 29 32 34 39 36 31 28 28 27 28 31
1 3 5 1 10 9 6 2 5 4 4 3 6 3 1 8 14 13 14 14 15 15 16 19 21 22 23 24 27 29 30 29 30 30 31 31 30 31 27 26 25 22 26 28
2 1 2 6 9 8 4 5 9 8 7 7 4 3 1 14 13 14 13 14 14 15 16 19 21 24 22 23 26 27 27 29 28 28 23 29 28 30 30 27 27 29 26 27
3 2 4 8 8 5 5 8 9 8 6 7 5 5 7 12 11 12 12 12 13 14 16 19 23 24 23 25 26 24 26 29 30 32 31 26 26 26 26 25 28 28 29 28
2 3 4 9 9 9 7 9 9 8 7 6 5 7 8 9 11 10 12 13 14 14 15 18 22 24 23 25 26 24 27 27 28 29 30 25 24 25 25 26 26 27 26 27
5 6 10 9 8 9 8 8 7 5 6 7 6 7 8 8 11 12 13 14 16 16 15 17 22 22 23 26 25 25 27 24 25 27 28 30 24 22 24 25 25 25 26 27
6 12 12 9 7 7 8 8 10 11 10 7 8 7 10 8 11 13 13 15 17 17 16 18 20 22 24 25 23 25 24 23 25 25 27 27 28 20 27 31 32 26 27 24
4 11 6 10 10 10 6 6 7 9 9 10 12 8 16 12 14 14 14 13 15 16 18 17 22 21 23 24 22 25 22 22 25 25 24 23 24 24 23 24 30 28 26 28
4 6 13 13 11 14 8 7 11 12 14 8 12 14 17 13 13 14 14 15 15 16 16 17 20 22 22 22 23 23 25 22 22 26 26 25 23 24 20 22 21 28 27 26
15 16 10 8 9 12 14 16 17 16 14 13 14 16 17 16 15 13 13 13 12 12 13 15 18 21 20 19 20 20 23 23 23 25 24 26 25 25 25 24 22 26 30 29
7 7 9 15 13 11 17 17 11 7 12 14 15 15 16 15 14 12 8 11 9 10 12 13 17 19 18 18 18 20 18 21 20 23 23 23 26 24 22 22 21 22 26 31
11 13 13 12 10 8 8 9 10 8 13 14 14 15 15 16 14 12 7 7 8 9 9 10 13 15 16 16 16 18 18 17 19 20 23 23 24 22 21 20 20 20 23 26
13 13 12 10 9 8 7 9 16 13 16 17 14 16 18 16 12 8 7 4 5 6 7 6 11 12 12 15 14 16 16 16 18 19 21 21 22 22 22 21 20 20 22 24
12 10 14 12 10 8 7 12 20 20 17 19 15 14 15 16 12 8 6 7 3 1 7 6 7 10 10 14 12 12 14 15 16 18 18 19 19 20 21 21 22 22 22 22
18 15 19 19 20 17 17 18 18 22 21 18 17 16 14 13 12 9 8 4 2 7 2 6 5 6 9 10 10 10 12 12 14 15 16 16 17 17 18 19 20 20 20 22
12 16 21 21 23 24 20 21 24 22 19 19 18 18 16 13 12 11 8 5 1 0 2 4 6 2 5 7 8 9 9 10 11 12 13 14 15 15 16 16 17 17 18 18
14 19 20 22 22 24 25 26 25 22 20 19 20 19 16 13 10 9 7 9 5 1 1 3 6 5 1 5 6 6 7 8 9 10 11 12 12 13 13 15 15 15 16 16
17 17 19 23 23 21 23 22 20 21 21 20 15 15 15 12 9 8 6 6 5 1 4 5 6 3 1 3 5 4 6 6 7 9 10 10 10 11 11 13 12 13 14 14
18 20 20 21 22 21 19 18 20 21 22 21 19 18 16 10 7 8 7 8 8 5 6 5 5 3 2 1 3 3 5 6 7 6 7 8 9 9 9 10 11 12 12 11
18 16 17 17 17 19 17 19 19 19 18 17 15 14 15 13 10 10 10 8 11 10 10 8 5 5 3 1 2 5 5 7 6 9 5 7 8 8 8 9 10 11 11 10
17 16 17 20 19 18 19 20 18 17 17 16 15 15 16 15 11 3 13 10 8 7 7 7 8 5 2 4 5 7 7 7 8 8 7 10 8 8 9 9 11 10 10 11
19 17 18 22 17 19 20 21 19 20 18 18 16 16 13 14 17 12 10 11 10 10 10 9 8 8 7 6 7 9 9 9 9 10 11 11 9 8 10 11 12 14 13 12
15 15 16 18 19 18 20 21 20 20 21 18 18 19 19 15 13 15 16 14 13 13 12 9 9 11 11 11 11 10 9 9 10 11 11 10 10 10 12 13 14 14 13 14

GFSNGP_925_spd_144.txt.gz
Wind_Speed
4 3 4 5 12 8 4 5 5 4 6 6 6 6 6 4 2 2 4 6 4 4 14 21 24 26 27 28 30 32 32 33 34 34 32 32 35 33 35 30 30 30 32 37
4 7 6 4 7 8 5 5 6 5 3 5 4 9 5 6 5 5 4 5 7 13 16 19 23 24 26 28 29 29 29 31 32 33 33 33 33 34 35 36 37 37 34 33
4 8 6 3 7 7 4 3 6 6 4 5 7 9 6 6 8 5 4 6 8 12 14 18 21 22 25 26 27 27 27 28 31 32 33 34 34 36 36 35 35 36 34 33
3 5 4 3 1 3 8 3 7 8 6 4 10 6 7 7 7 5 5 6 8 10 14 17 21 22 25 24 25 25 27 28 29 30 30 32 33 32 33 33 35 35 32 34
5 3 1 3 5 6 6 6 6 8 8 14 11 9 10 9 7 6 5 7 8 11 14 16 21 22 24 23 25 25 27 28 29 26 28 30 31 28 27 25 24 26 29 33
3 3 6 1 7 7 5 3 8 7 7 11 10 6 3 6 9 8 8 8 8 11 13 16 21 21 23 23 24 25 26 27 27 28 26 26 27 25 23 23 23 23 28 38
3 2 1 4 10 5 4 5 5 6 8 6 3 2 9 11 10 11 10 10 10 11 15 16 18 21 23 22 25 24 25 26 27 27 19 27 22 23 20 20 22 30 32 34
3 3 5 10 5 5 5 5 10 9 6 8 7 13 12 9 10 10 11 10 10 13 15 17 18 20 20 21 23 22 24 26 27 27 26 18 23 27 31 32 35 35 33 33
1 3 2 2 2 7 6 9 5 9 7 7 9 11 11 9 10 11 12 12 11 13 14 17 17 19 20 21 20 21 23 25 27 29 30 22 28 29 32 31 29 27 28 29
4 0 4 8 7 7 8 9 7 6 7 7 11 12 11 8 11 12 14 14 13 14 17 17 17 19 20 20 19 20 20 22 23 25 27 28 20 23 27 29 28 29 30 28
5 5 7 4 5 7 10 11 12 11 8 10 13 11 12 9 12 13 13 13 14 14 15 16 15 18 19 19 20 19 17 19 21 21 24 26 27 24 32 32 30 25 26 26
4 13 4 9 8 11 11 11 11 13 9 12 18 12 16 12 15 15 13 11 13 12 13 14 15 17 18 19 21 21 17 19 22 22 23 22 24 25 22 26 28 30 29 29
5 12 7 12 12 10 8 7 11 14 15 10 16 19 17 15 15 15 14 12 11 11 11 12 15 17 17 17 18 19 19 21 21 24 24 24 25 24 21 22 24 27 30 28
15 16 10 9 6 10 15 16 19 17 18 19 19 19 20 17 15 15 12 10 9 9 9 10 13 15 16 15 15 15 15 18 19 19 22 22 23 23 22 21 22 26 28 27
8 6 9 13 15 13 20 19 11 9 13 14 20 19 18 15 14 14 11 8 7 7 7 8 11 12 13 13 14 13 16 15 17 17 18 19 20 22 20 19 18 18 21 29
10 13 15 14 13 13 11 10 11 9 13 13 16 17 17 16 14 12 9 6 6 5 5 6 8 9 11 10 10 12 10 13 14 16 17 19 20 21 20 19 17 17 20 25
15 12 12 11 11 12 11 13 15 15 15 16 17 20 20 17 13 10 9 7 6 4 3 3 5 6 8 7 8 9 8 11 11 13 15 16 18 19 18 19 19 20 19 20
8 6 10 13 13 11 9 16 18 19 18 21 22 22 20 18 15 14 11 9 7 4 2 4 2 3 4 5 6 6 6 7 9 11 11 12 14 15 16 17 17 17 18 19
17 12 16 16 17 15 14 16 19 22 25 26 25 25 22 18 15 14 14 11 9 10 4 5 3 1 0 2 3 4 4 5 6 8 8 9 9 11 12 12 14 14 14 16
11 20 21 20 22 20 17 23 27 27 28 26 22 21 20 19 16 16 15 12 8 5 7 5 1 3 3 1 1 2 2 3 3 5 5 6 7 8 10 9 10 11 11 11
12 18 20 22 21 25 28 28 28 28 26 23 24 24 23 19 17 16 15 13 11 8 8 7 4 4 6 3 1 1 2 2 2 3 5 5 5 6 7 8 9 10 9 9
14 16 19 24 24 24 26 28 27 26 25 24 21 19 19 19 17 17 17 15 11 11 10 9 7 5 6 5 3 2 3 3 4 4 4 4 5 6 6 7 8 9 9 10
19 22 23 23 24 24 23 24 24 24 25 25 24 23 22 21 19 19 18 15 14 12 10 9 7 5 7 7 6 3 5 5 5 6 6 5 6 6 7 7 8 9 10 10
19 20 21 18 17 20 17 22 21 22 22 22 22 20 19 19 17 18 14 9 11 14 12 10 10 7 6 8 8 5 6 8 7 7 7 6 9 9 8 9 9 10 11 11
20 19 19 20 19 17 20 20 18 18 18 19 20 19 19 20 19 10 15 14 11 12 11 9 9 10 7 6 9 10 9 10 9 9 10 10 10 11 10 10 11 12 12 14
17 17 19 20 17 18 18 18 19 20 21 20 21 21 21 20 21 17 12 12 15 14 13 11 9 10 10 10 9 9 10 11 11 11 12 12 11 11 11 12 13 13 13 13
12 11 11 12 15 14 17 19 20 20 23 23 23 21 21 19 18 20 20 17 16 15 13 12 12 11 11 12 13 13 13 12 11 12 12 13 13 13 13 14 15 15 15 15

GFSNGP_925_spd_147.txt.gz
Wind_Speed
11 2 3 5 12 11 6 5 6 5 7 9 10 9 7 5 4 3 3 4 3 7 13 17 20 22 24 26 27 29 28 29 31 31 31 32 35 37 38 39 38 38 38 38
4 8 7 5 10 9 4 5 5 5 2 5 6 9 6 6 6 3 1 3 5 10 12 15 19 20 22 24 26 25 26 27 30 33 32 33 32 32 31 30 33 32 32 33
4 9 2 3 7 8 4 3 7 6 6 6 8 9 8 7 5 4 2 4 6 10 11 14 19 20 21 22 23 24 25 25 29 31 31 32 31 31 31 30 28 28 32 33
2 6 7 4 2 2 5 2 3 6 10 9 9 6 6 5 5 4 4 4 6 8 11 15 18 19 20 22 23 23 23 25 26 26 28 30 30 30 30 28 28 30 34 35
3 5 2 1 4 7 7 6 5 10 10 12 13 7 4 5 4 4 5 6 7 8 10 14 16 17 20 21 21 24 24 23 24 25 29 27 28 27 28 28 29 29 31 33
2 4 5 2 4 5 3 3 12 10 13 16 10 5 4 7 7 7 8 8 8 8 9 13 16 16 19 21 21 24 25 24 24 23 22 26 26 26 24 24 25 26 32 37
3 2 4 2 7 5 4 5 10 13 13 14 6 2 8 12 9 10 9 8 8 9 10 11 13 15 18 18 22 22 22 22 23 22 19 25 25 26 26 25 25 28 28 28
2 3 5 7 4 5 4 4 8 11 7 8 11 13 13 10 10 10 10 8 8 8 9 9 13 15 18 16 20 19 20 22 24 23 18 27 27 26 26 26 25 27 25 24
3 3 2 3 1 4 4 8 5 9 9 14 15 11 12 10 10 10 11 11 9 9 9 11 12 14 17 17 17 19 20 21 22 23 23 17 30 29 23 24 23 23 22 22
3 0 2 4 5 5 9 8 8 8 13 14 13 13 11 9 12 11 12 12 10 10 10 11 12 13 14 15 15 17 20 21 21 22 22 22 17 29 25 24 24 23 24 23
3 2 5 3 4 7 8 10 9 9 12 14 15 11 12 9 13 14 13 11 10 10 9 10 11 13 14 15 16 16 16 20 20 20 21 22 20 21 25 26 25 21 21 23
5 11 4 6 7 11 12 10 11 14 10 13 19 12 16 13 16 16 14 12 10 8 8 8 10 10 11 13 15 18 17 18 19 19 19 19 21 21 17 20 23 24 24 26
5 11 3 12 11 8 12 10 12 14 18 13 15 20 17 17 16 16 14 11 10 10 9 9 9 10 10 10 11 12 15 16 17 18 18 19 19 20 20 19 18 23 25 25
15 14 8 9 6 10 15 14 19 18 19 19 20 19 19 18 18 16 14 11 10 10 8 7 7 8 8 8 7 8 9 10 12 15 16 15 16 16 17 21 24 25 26 24
6 5 9 11 14 10 20 20 12 11 14 14 19 20 19 17 15 16 14 11 10 9 7 6 6 6 6 6 5 6 6 6 6 7 9 12 14 16 18 17 17 19 26 29
7 13 14 16 13 12 13 12 12 10 14 15 16 17 18 18 18 17 14 12 12 11 9 6 4 4 4 4 3 3 4 4 4 4 6 7 8 10 13 15 15 14 18 23
15 10 12 13 14 14 13 12 14 15 16 17 17 20 20 19 17 15 13 11 9 9 9 6 4 3 2 3 1 1 1 2 3 3 4 5 7 8 8 8 10 13 16 18
6 6 10 14 14 12 10 14 16 18 17 20 22 22 21 21 18 19 16 13 10 7 6 8 5 3 3 3 1 2 3 3 3 3 3 4 6 7 8 9 8 8 9 11
13 10 13 14 17 15 15 15 18 20 21 23 24 25 25 22 18 18 17 15 13 11 10 9 8 6 6 5 4 3 4 4 4 4 4 5 6 8 9 9 10 11 10 11
8 14 17 17 19 20 17 21 23 23 23 24 24 22 22 21 18 18 17 18 16 10 9 10 9 7 9 7 6 5 5 6 5 6 6 7 7 8 10 10 11 12 13 13
9 14 15 18 17 19 22 23 25 24 24 26 25 25 25 22 20 18 19 19 17 14 10 11 9 6 7 9 8 7 7 6 6 7 7 7 8 8 9 10 11 12 14 14
12 13 16 18 18 18 20 23 24 23 25 26 24 21 19 21 22 22 21 19 9 12 14 12 11 9 8 9 9 8 7 7 7 7 8 9 9 9 10 10 11 12 14 14
16 18 18 19 20 19 18 21 23 23 26 25 24 22 23 24 24 22 18 17 19 14 16 13 11 10 9 10 10 10 8 9 9 9 9 9 9 11 12 12 12 13 14 15
13 14 15 14 14 15 14 19 20 20 21 20 21 20 21 21 20 21 19 10 6 14 17 13 12 11 11 10 12 12 11 9 10 10 10 10 11 12 13 13 13 13 14 15
12 13 14 15 15 15 15 17 16 16 16 17 18 19 20 20 20 14 16 15 14 12 15 13 12 12 13 12 11 12 12 12 12 13 13 13 13 14 14 14 14 14 15 16
11 13 14 14 13 12 12 14 18 18 17 17 19 20 20 20 19 18 16 10 12 15 14 13 13 12 12 13 13 13 12 11 12 13 13 13 13 14 15 15 16 16 17 17
6 6 6 7 10 10 12 15 17 18 19 20 21 19 20 20 20 19 18 19 16 15 16 15 14 14 13 12 13 14 15 15 16 16 15 16 15 16 16 17 17 18 18 18